Location: Caltech
(34.1382°N, 118.1253°W)
Time: 13:37:58
(UTC-07:00)

Iridium 18 - Visible Passes

Search period start: 28 June 2016 00:00
Search period end: 08 July 2016 00:00
Orbit: 776 x 779 km, 86.4° (Epoch: 28 June)

Date Brightness Start Highest point End Pass type
(mag) Time Alt. Az. Time Alt. Az. Time Alt. Az.
28 Jun 7.4 04:47:17 10° NNE 04:51:58 33° E 04:56:37 10° SSE visible
29 Jun 8.2 04:14:49 10° NE 04:18:14 17° ENE 04:21:37 10° ESE visible
01 Jul 6.5 04:47:05 10° N 04:52:08 49° E 04:57:10 10° SSE visible
02 Jul 7.7 04:14:10 10° NNE 04:18:28 26° E 04:22:45 10° SE visible
03 Jul 8.3 03:42:15 10° NE 03:44:41 13° ENE 03:47:06 10° ESE visible
04 Jul 5.8 04:47:02 10° N 04:52:16 74° E 04:57:28 10° S visible
05 Jul 6.9 04:13:50 10° NNE 04:18:41 38° E 04:23:29 10° SSE visible
06 Jul 7.9 03:41:12 10° NNE 03:44:58 20° E 03:48:43 10° SE visible
07 Jul 5.5 04:47:08 10° N 04:52:21 74° W 04:57:33 10° S visible
